"snapshot","one_cell","under_twenty_cells","under_hundred_cells","under_thousand_cells","over_thousand_cells"
"2007-12-19",64,27,0,0,0
"2008-04-01",84,31,0,0,0
"2008-06-27",85,32,0,0,0
"2008-10-10",88,33,0,0,0
"2008-12-17",88,33,0,0,0
"2009-04-06",91,48,0,0,0
"2009-06-17",91,48,0,0,0
"2009-09-25",89,46,0,0,0
"2009-12-16",90,46,0,0,0
"2010-04-01",90,46,0,0,0
"2010-07-26",91,47,0,0,0
"2010-11-17",114,48,0,0,0
"2011-02-21",86,22,0,0,0
"2011-06-10",87,24,0,0,0
"2011-09-05",87,24,0,0,0
"2012-01-18",91,24,0,0,0
"2012-03-26",93,22,0,0,0
"2012-07-13",157,155,0,0,0
"2012-10-31",167,155,0,0,0
"2012-12-11",168,155,0,0,0
"2013-02-20",167,154,0,0,0
"2013-05-21",177,156,0,0,0
"2013-07-09",177,156,0,0,0
"2013-09-10",185,176,0,0,0
"2013-12-20",182,178,0,0,0
"2014-03-28",236,275,0,0,0
"2014-09-08",257,478,11,0,0
"2015-01-19",263,482,11,0,0
"2015-04-09",273,484,11,0,0
"2015-07-03",276,490,11,0,0
"2015-10-01",289,514,11,0,0
"2016-01-04",275,471,61,0,0
"2016-04-05",276,471,61,0,0
"2016-07-04",278,471,61,0,0
"2016-10-07",275,471,61,0,0
"2016-12-27",276,447,94,0,0
"2017-04-12",284,448,94,0,0
"2017-07-24",282,449,94,0,0
"2017-10-12",286,450,94,0,0
"2017-12-22",285,427,126,0,0
"2018-04-09",291,425,126,0,0
"2018-07-11",291,425,126,0,0
"2018-09-28",287,421,126,0,0
"2019-01-01",289,422,126,0,0
"2019-04-06",319,430,144,0,0
"2019-07-01",338,444,145,0,0
"2019-10-09",346,449,145,0,0
"2020-01-01",360,464,145,0,0
"2020-04-01",370,505,146,0,0
"2020-07-01",392,510,156,0,0
"2020-10-01",396,519,156,0,0
"2021-01-01",421,540,156,0,0
"2021-04-01",432,558,157,0,0
"2021-07-01",453,569,163,0,0
"2021-10-01",454,583,163,0,0
"2022-01-01",463,591,165,0,0
"2022-04-01",463,604,169,0,0
"2022-07-01",462,608,170,0,0
"2022-10-01",467,615,170,0,0
"2023-01-01",473,624,170,0,0
"2023-04-01",480,627,170,0,0
